Location: *
(49.3500°N, 12.6000°E)
Time: 21:36:37
(UTC+00:00)

Ariane Rocket - Visible Passes

Search period start: 27 January 2020 00:00
Search period end: 06 February 2020 00:00
Orbit: 761 x 769 km, 98.7° (Epoch: 27 January)

Date Brightness Start Highest point End Pass type
(mag) Time Alt. Az. Time Alt. Az. Time Alt. Az.
27 Jan 4.0 17:01:45 10° ESE 17:05:45 24° ENE 17:09:46 10° N visible
27 Jan 3.5 18:39:22 10° S 18:44:21 59° W 18:49:24 10° NNW visible
28 Jan 4.7 16:27:09 10° E 16:29:30 13° NE 16:31:52 10° NNE visible
28 Jan 2.9 18:02:32 10° SSE 18:07:35 71° ENE 18:12:40 10° N visible
28 Jan 5.5 19:43:37 10° SW 19:47:04 18° W 19:50:32 10° NW visible
29 Jan 5.9 06:08:25 10° NE 06:11:35 16° E 06:14:44 10° SE visible
29 Jan 3.5 17:26:24 10° SE 17:31:00 36° ENE 17:35:39 10° N visible
29 Jan 4.4 19:05:18 10° SSW 19:09:57 36° W 19:14:39 10° NNW visible
30 Jan 4.3 16:51:01 10° ESE 16:54:38 20° ENE 16:58:15 10° NNE visible
30 Jan 3.1 18:27:59 10° S 18:33:03 73° WSW 18:38:10 10° NNW visible
30 Jan 6.0 20:11:42 10° W 20:12:55 11° W 20:14:08 10° WNW visible
31 Jan 3.0 17:51:23 10° SSE 17:56:21 57° ENE 18:01:21 10° N visible
31 Jan 5.2 19:31:42 10° SW 19:35:40 23° W 19:39:39 10° NW visible
01 Feb 6.1 05:57:52 10° ENE 06:00:09 13° E 06:02:25 10° ESE visible
01 Feb 3.8 17:15:28 10° ESE 17:19:50 30° ENE 17:24:13 10° N visible
01 Feb 4.0 18:53:46 10° S 18:58:37 45° W 19:03:31 10° NNW visible
02 Feb 4.5 16:40:23 10° E 16:43:30 17° NE 16:46:38 10° NNE visible
02 Feb 2.9 18:16:41 10° SSE 18:21:46 90° NE 18:26:55 10° NNW visible
02 Feb 5.8 19:58:52 10° WSW 20:01:28 14° W 20:04:04 10° NW visible
03 Feb 3.2 17:40:18 10° SE 17:45:08 46° ENE 17:50:00 10° N visible
03 Feb 4.9 19:19:57 10° SSW 19:24:16 28° W 19:28:39 10° NW visible
04 Feb 4.0 17:04:37 10° ESE 17:08:40 25° ENE 17:12:46 10° N visible
04 Feb 3.6 18:42:18 10° S 18:47:18 56° W 18:52:20 10° NNW visible
05 Feb 2.9 18:05:27 10° SSE 18:10:31 73° ENE 18:15:38 10° NNW visible
05 Feb 5.5 19:46:40 10° SW 19:50:02 18° W 19:53:25 10° NW visible
